RH
26 36 46 44 55 58 64 71 76 83 80 84 85 86 80 78 80 77 76 73 73 68 76 75 71 78 80 82 80 81 77 80 83 85 74 87 84 86 83 85 80 74 76
19 32 49 43 53 58 61 67 71 71 72 75 76 76 77 77 77 77 77 75 73 71 71 74 76 77 82 82 84 85 86 82 80 81 84 91 81 83 83 75 65 78 71
19 30 50 48 56 58 60 63 68 65 67 69 73 79 77 75 78 80 80 77 72 75 77 79 79 85 85 86 85 86 82 84 81 80 81 77 89 83 72 69 71 81 77
33 40 52 55 54 56 58 63 67 66 67 71 72 71 74 73 78 81 82 84 78 79 78 80 84 88 90 87 83 81 83 83 82 81 75 83 82 86 85 74 69 77 73
38 39 54 56 69 62 69 66 69 69 68 72 72 69 73 74 78 83 82 83 85 80 78 82 85 87 89 87 85 86 84 86 82 85 86 85 81 81 84 89 77 79 76
39 39 50 58 67 71 70 68 67 70 70 71 75 74 71 74 79 83 85 88 86 87 84 82 87 88 89 88 88 87 85 84 84 81 82 84 86 84 84 87 86 82 89
40 40 52 61 66 70 70 67 63 67 72 76 74 72 69 74 72 74 81 88 90 92 90 88 88 87 85 84 84 85 84 81 83 80 82 80 82 78 78 82 83 84 87
44 44 44 56 66 67 74 70 69 64 72 77 75 76 70 66 69 71 75 80 85 88 87 88 84 81 76 77 80 82 85 81 81 78 75 79 81 79 80 82 85 85 79
40 41 43 44 52 70 75 74 70 66 68 79 80 76 78 68 72 70 76 76 84 79 85 83 83 80 75 76 77 81 81 81 79 78 75 75 78 83 82 82 82 92 90
41 43 48 50 50 58 73 80 75 70 69 78 82 80 80 67 68 72 81 78 77 76 79 78 75 75 70 68 70 74 72 71 75 74 70 70 74 79 82 80 80 85 92
40 42 42 48 52 59 79 82 77 73 78 80 80 78 74 75 74 74 76 77 80 75 74 70 71 68 69 66 66 70 66 67 68 68 70 70 70 80 81 85 85 86 86
40 40 40 46 52 59 76 77 78 76 74 76 77 80 80 76 74 77 76 82 80 78 70 70 65 64 62 62 62 58 64 68 68 68 68 71 55 67 65 74 70 81 75
33 40 50 56 60 64 69 79 83 79 77 75 76 78 82 80 78 76 76 78 73 73 65 63 63 63 66 63 63 65 68 68 68 70 71 71 70 69 73 68 65 59 50
26 43 58 64 63 64 71 76 83 83 78 73 74 76 78 79 76 75 73 74 67 64 61 66 65 67 63 59 57 64 70 67 74 77 74 72 71 71 70 67 74 64 60
39 52 60 65 66 68 72 71 78 82 77 74 77 80 83 74 75 75 76 73 66 68 67 73 76 79 74 67 71 74 72 68 73 73 66 71 70 70 68 66 73 69 65
42 44 50 58 66 70 73 71 75 83 84 76 80 84 77 74 77 78 80 81 80 82 78 82 86 88 87 85 78 70 64 58 71 71 68 67 71 69 71 70 69 68 71
50 55 62 72 72 76 81 80 82 84 86 86 87 83 83 83 84 90 98 99 97 92 94 96 93 95 97 82 79 76 65 60 66 70 68 52 54 68 66 72 72 71 73
66 71 77 82 85 87 86 84 84 86 92 97 94 95 97 99 99 99 99 99 98 98 98 98 98 97 94 82 86 83 80 82 82 80 79 78 76 69 71 69 74 87 83
74 83 84 89 95 94 91 91 100 100 100 100 100 100 99 99 99 99 99 99 99 99 98 98 98 97 97 80 83 82 86 92 88 78 82 78 85 66 74 79 90 96 96
76 76 93 97 94 97 97 100 100 100 100 100 99 99 99 99 99 99 99 99 99 98 97 98 98 92 96 80 78 85 88 90 89 86 83 69 81 67 75 92 94 95 97
78 77 89 95 99 96 100 100 100 100 100 99 98 98 98 98 98 98 98 98 98 97 97 97 98 97 94 94 79 78 89 90 88 89 91 91 70 74 72 82 94 92 96
84 82 91 92 96 91 96 100 100 100 99 97 96 96 97 98 97 96 98 98 97 97 97 97 98 98 96 85 86 75 79 81 92 93 94 87 66 69 71 85 69 72 95
88 78 90 90 93 89 92 98 99 98 98 96 97 96 96 97 96 97 98 97 97 96 96 96 96 97 97 97 81 94 93 85 92 92 79 67 66 69 76 67 74 98 95
85 75 85 89 94 90 90 93 98 98 94 96 97 97 96 97 98 96 96 96 96 96 95 95 95 96 96 96 97 97 92 85 87 77 89 94 94 93 97 95 94 97 97
84 73 82 87 95 90 92 96 98 94 95 95 96 98 96 96 97 97 95 94 97 93 94 92 91 95 97 96 91 92 95 92 90 91 96 98 99 100 98 98 98 98 97
82 82 87 92 94 95 98 99 96 90 92 95 93 94 95 96 95 93 97 98 96 88 79 79 85 88 80 73 76 79 78 79 79 95 100 100 100 98 98 97 96 96 92
Wind_Speed
12 16 15 20 19 19 18 17 15 10 6 3 4 3 2 1 3 4 6 6 2 3 6 4 4 5 5 4 3 2 2 4 4 2 3 4 4 6 5 4 5 6 5
7 8 15 20 20 21 19 18 18 16 10 6 4 3 3 2 3 3 4 4 2 2 5 6 5 6 5 5 4 4 2 2 3 3 2 2 4 5 5 6 8 11 10
7 8 16 17 18 20 21 20 18 17 13 10 5 4 4 4 3 3 3 1 1 2 5 6 5 5 5 5 3 3 5 3 2 5 4 3 3 4 4 6 7 9 8
18 9 10 15 19 17 14 14 14 13 9 8 6 10 5 5 4 4 2 2 2 3 4 5 5 5 4 5 4 4 3 4 3 2 4 6 3 3 4 3 4 7 9
14 14 6 7 9 11 11 12 13 11 8 8 8 8 7 4 4 4 7 4 1 1 3 5 6 6 5 5 6 6 6 4 5 4 2 5 4 5 3 3 2 6 6
15 20 13 14 11 8 8 8 10 10 8 7 9 9 9 7 6 7 6 4 3 2 2 5 5 5 5 5 5 6 7 6 6 6 6 4 3 2 3 3 2 4 3
13 14 12 10 8 9 9 8 8 8 9 8 9 9 9 9 14 11 8 7 4 3 4 4 5 4 5 6 6 6 6 5 6 7 6 5 5 3 2 3 1 2 3
8 9 9 7 5 8 8 7 7 6 8 9 8 7 8 7 8 10 9 7 6 5 5 5 6 6 6 5 5 5 5 5 5 8 7 6 5 4 4 2 2 1 1
8 10 8 4 3 6 7 9 8 7 7 8 7 7 6 8 8 10 7 7 7 6 6 6 6 6 5 6 6 5 5 6 4 6 7 5 4 5 5 4 3 2 1
8 8 8 6 4 4 5 3 4 5 4 5 5 5 5 6 7 7 7 10 10 9 9 6 6 6 6 6 6 5 6 8 4 5 7 5 3 5 4 3 3 3 3
6 6 5 6 6 4 5 6 6 7 6 5 4 5 5 5 7 7 8 10 9 10 7 6 5 5 5 5 5 6 8 9 6 4 7 6 6 4 4 3 2 2 2
7 7 6 6 7 6 5 7 7 7 7 7 7 5 6 7 8 8 8 8 10 7 9 8 5 5 6 5 6 7 7 8 7 6 9 7 4 6 5 2 2 3 3
6 6 6 7 7 7 4 4 4 7 5 6 7 8 7 7 8 10 10 9 10 8 8 7 6 7 5 6 5 7 8 9 10 10 10 8 7 6 3 5 3 1 2
7 6 7 7 6 6 5 2 2 3 5 5 7 8 10 12 11 10 11 11 11 10 9 7 6 6 7 7 7 9 10 10 10 10 10 9 8 6 6 6 5 4 4
8 8 7 6 6 6 4 4 3 6 6 6 8 9 8 10 12 11 11 11 11 9 9 8 7 7 7 5 8 7 10 10 10 10 11 9 12 15 11 5 4 4 5
7 8 8 7 6 5 5 3 3 6 6 7 6 7 11 11 11 11 9 11 9 10 10 11 8 8 4 3 9 8 10 10 11 10 10 9 13 15 18 17 19 13 6
7 7 7 6 4 0 3 1 3 4 5 4 6 9 11 11 10 12 11 11 12 10 11 9 7 7 4 7 11 11 8 9 9 10 9 8 7 10 10 14 17 18 19
6 5 6 5 4 3 3 2 2 2 3 5 7 8 12 12 11 11 13 12 11 12 11 11 8 7 4 16 20 20 11 12 10 11 9 8 4 9 11 10 11 8 8
6 4 3 6 5 6 1 4 3 4 5 5 8 7 8 10 9 10 9 8 8 8 9 9 8 7 4 16 20 15 11 11 10 10 8 6 5 14 16 11 9 3 3
2 4 4 7 6 5 3 2 3 5 5 7 8 8 9 10 8 7 8 7 8 10 9 9 7 9 4 16 18 13 8 9 7 8 7 10 7 14 16 8 6 6 1
8 4 6 3 3 4 2 2 4 4 6 8 10 10 9 10 10 10 10 10 10 11 11 9 6 6 5 6 17 17 7 7 8 6 4 3 11 13 15 11 5 5 4
10 3 4 4 4 2 3 2 4 5 8 9 10 10 10 8 9 12 9 11 11 11 10 9 7 4 3 7 8 16 15 16 9 7 3 5 15 15 15 7 10 13 6
5 4 5 6 3 1 3 4 5 8 9 9 9 9 10 9 9 11 10 8 9 8 8 7 7 5 2 2 10 10 17 20 9 7 10 14 14 14 9 12 11 7 5
4 2 6 6 2 1 3 4 7 8 10 10 10 8 9 9 8 6 7 7 7 7 7 7 7 6 4 3 4 6 10 15 10 12 7 5 5 4 3 5 4 3 3
4 4 5 4 3 2 1 4 7 9 9 9 9 8 6 8 8 6 6 7 5 6 7 7 8 8 6 4 10 9 6 6 8 7 4 3 2 2 2 2 2 2 2
4 6 4 5 3 2 2 4 6 8 10 8 6 8 7 6 6 7 6 4 7 13 14 16 12 7 12 17 17 16 16 18 16 4 3 2 2 3 2 3 2 2 3
Wind_Direction
206 188 163 150 137 142 140 141 131 138 127 100 103 74 137 104 86 114 120 123 131 102 134 128 99 104 100 92 60 28 75 22 3 44 11 27 86 103 97 91 82 76 71
204 174 151 151 149 151 144 144 148 149 150 146 149 144 149 97 113 93 77 114 124 104 127 129 119 127 106 84 59 65 57 88 30 106 83 90 18 45 52 63 68 74 73
232 140 153 155 146 150 157 158 156 153 151 157 148 121 84 64 61 51 68 17 128 86 97 118 105 116 121 117 99 81 99 131 30 68 134 123 166 114 35 40 71 74 78
32 26 151 146 155 156 141 139 142 148 154 158 149 152 146 148 160 145 128 65 46 48 82 84 94 87 84 95 95 73 74 105 101 64 34 57 105 128 147 4 64 94 75
36 29 138 91 66 110 114 128 139 154 164 163 151 147 141 157 140 128 131 123 82 101 103 109 106 101 96 89 74 60 65 72 90 76 48 62 51 44 108 139 45 80 69
31 37 74 85 81 80 92 111 141 164 168 154 147 151 153 156 132 145 145 152 157 184 133 111 109 105 106 103 99 87 81 77 83 82 70 77 87 48 77 94 7 110 55
53 45 62 98 109 128 150 167 160 157 170 158 156 161 171 157 154 166 160 158 161 164 163 126 115 108 112 110 102 91 84 88 94 102 96 81 66 51 60 81 89 102 168
61 66 49 67 160 175 177 169 169 156 157 160 167 165 171 163 164 171 163 164 161 160 161 130 126 123 117 107 107 102 99 84 87 102 101 99 89 77 67 87 77 37 76
71 72 57 49 48 219 200 180 177 169 159 167 168 175 174 165 162 173 165 161 143 141 135 134 130 129 119 118 111 115 111 107 92 100 110 107 100 97 94 86 87 117 113
87 75 84 65 347 40 198 168 144 153 160 149 169 173 172 163 152 156 140 139 142 136 134 130 130 134 129 123 115 109 100 103 86 98 99 94 114 114 108 111 105 91 126
105 105 90 92 75 95 107 112 108 104 94 120 131 132 135 125 119 122 124 126 123 132 126 132 130 131 123 120 112 109 111 106 97 101 102 101 106 114 123 141 136 143 169
161 156 156 115 77 52 124 153 165 158 154 143 135 140 129 123 116 118 119 119 124 117 126 130 131 106 115 117 124 123 122 115 116 89 74 48 99 76 82 104 68 177 194
172 201 108 89 82 74 95 207 212 184 167 162 156 145 138 127 128 130 126 122 122 114 108 106 116 124 122 110 97 109 99 96 88 82 76 59 63 54 28 59 28 15 77
235 104 115 111 113 94 83 38 217 237 204 185 178 169 164 151 145 140 132 125 121 118 120 108 123 123 124 121 113 104 102 91 87 84 77 69 62 48 60 58 13 2 74
111 126 133 147 137 121 133 140 196 210 217 194 186 181 143 139 135 140 133 126 121 117 117 110 93 71 77 64 107 113 111 105 96 86 90 82 78 74 68 66 14 30 62
129 96 90 102 117 163 184 173 234 235 200 188 192 143 140 140 140 135 123 112 104 102 108 108 99 85 92 57 161 141 128 126 114 113 104 94 90 82 80 74 66 60 64
93 84 73 60 27 215 99 36 309 282 233 183 134 142 138 137 133 130 125 131 127 121 112 104 112 114 100 206 148 120 127 127 132 133 132 127 115 99 89 72 67 69 71
71 81 85 59 16 25 47 56 346 263 144 125 126 134 140 140 144 140 141 140 142 146 148 129 127 113 102 120 111 104 101 95 92 95 101 101 114 131 108 93 81 74 79
48 53 38 72 15 358 137 102 88 99 119 131 129 139 137 132 134 126 132 137 135 117 115 116 124 124 134 120 110 103 92 88 89 90 89 88 74 127 120 110 106 70 30
49 46 44 52 35 17 47 122 122 138 132 135 134 130 131 126 130 126 118 115 108 110 111 107 120 120 105 124 115 107 108 105 98 84 91 108 115 116 117 112 124 112 150
342 83 78 69 84 46 55 131 111 123 128 127 131 132 128 132 127 118 120 116 111 117 119 122 127 103 95 102 143 137 128 130 114 110 102 94 124 119 131 129 138 153 147
300 111 122 63 67 111 122 137 123 131 134 136 134 132 131 130 130 129 131 126 127 124 125 127 120 103 93 104 126 160 146 140 128 129 118 122 120 123 127 131 128 121 100
289 211 120 99 64 195 154 163 146 146 140 132 134 137 135 135 138 135 137 133 132 132 133 135 136 126 95 59 104 120 140 130 118 129 134 125 125 126 126 126 97 81 94
263 194 137 100 137 175 185 151 150 155 142 138 139 141 137 134 134 133 133 136 139 139 144 147 146 139 126 106 92 91 115 120 123 128 104 104 115 99 75 73 69 78 106
222 112 96 110 119 88 111 149 153 144 141 138 138 133 139 137 133 130 140 139 139 153 159 157 150 151 153 169 140 134 123 125 123 104 69 69 75 83 73 50 77 51 64
83 83 104 110 124 120 137 134 136 145 137 136 138 134 135 137 132 129 126 142 173 188 173 159 156 160 162 170 163 151 146 142 141 100 125 179 165 149 163 152 130 91 85